Simultaneous Nadir Overpasses (SNOs) Predictions

Prediction of SNOs between AURA and NPP Satellite Orbit:

Table of predicted SNOs for the next 14.0 days since TLE Epoch: 9/27/2019
Index Date (AURA) Time (AURA) Lat,Lon (AURA) SZA (AURA ) Date (NPP) Time (NPP) Lat,Lon (NPP) SZA (NPP ) Distance(km) Time Diff (sec)
1 09/30/2019 10:35:26 -79.38, 97.10 85.15 09/30/2019 10:34:19 -79.38, 97.10 85.09 0.15 67
2 09/30/2019 11:24:44 79.68, -93.19 94.46 09/30/2019 11:24:54 79.69, -93.04 94.42 3.17 10
3 10/03/2019 02:51:53 -79.47,-146.40 84.29 10/03/2019 02:51:11 -79.47,-146.40 84.26 0.05 42
4 10/03/2019 03:41:14 79.65, 22.51 95.47 10/03/2019 03:41:50 79.65, 22.37 95.47 2.79 36
5 10/05/2019 19:08:20 -79.56, -29.92 83.43 10/05/2019 19:08:03 -79.56, -29.89 83.43 0.63 17
6 10/05/2019 19:57:40 79.77, 139.27 96.28 10/05/2019 19:58:41 79.76, 139.18 96.25 1.84 61
7 10/08/2019 10:35:26 79.40, -82.79 97.76 10/08/2019 10:34:17 79.40, -82.77 97.81 0.49 69
8 10/08/2019 11:24:46 -79.68, 86.81 82.63 10/08/2019 11:24:54 -79.68, 86.90 82.65 1.72 8
9 10/11/2019 02:51:51 79.51, 33.87 98.57 10/11/2019 02:51:07 79.52, 33.98 98.58 2.29 44




NCC Satellite Simultaneous Nadir Overpasses (SNOs) Prediction Service
